Theta_e
314 314 315 316 316 314 314 316 318 317 316 316 318 321 324 327 328 328 328 327 326 326 327 325 324 323 324 325 326 325 321 317 314 312 312 316 317 317 316 312 310 311 312 314 314 315 312 311 312 313 314 314 315 317 316 319 319 320 331 332 323 324 324 320 320 315 316 320 313 310 313 316 317 314 314 314 314 314 314 314 316 316 316 316 316 317 317 314
314 316 316 316 315 314 315 316 317 316 316 318 319 322 324 326 327 327 326 324 324 325 325 325 324 324 325 326 324 320 315 312 311 311 312 315 315 315 314 311 310 311 313 314 315 314 312 311 312 314 315 314 315 317 316 318 317 321 330 328 327 331 322 315 316 312 312 315 312 311 312 314 316 313 313 315 314 313 314 315 314 315 315 316 316 316 317 316
313 316 317 315 314 314 315 316 316 315 317 319 320 322 323 326 326 326 325 323 324 324 325 325 325 326 326 324 318 313 311 310 310 310 312 313 314 314 312 310 310 311 313 314 314 313 311 311 312 314 315 315 315 317 317 318 316 317 323 328 333 327 315 312 313 312 313 313 311 311 311 313 314 313 314 314 313 313 314 315 314 314 315 315 316 316 317 317
315 317 316 314 313 315 316 316 315 316 318 319 320 321 322 325 325 325 324 323 324 325 326 326 327 327 322 316 312 310 309 309 309 310 312 313 313 312 310 310 310 312 314 314 313 311 311 311 313 315 315 315 315 317 316 317 316 315 321 330 325 315 314 314 312 313 313 312 313 312 312 313 313 313 314 313 314 315 314 315 315 315 315 315 316 316 316 317
316 316 314 314 315 316 316 314 315 317 318 319 319 320 322 324 324 324 324 324 325 326 327 328 327 322 313 310 309 310 309 310 310 311 312 313 313 311 310 310 310 313 313 312 312 311 311 312 314 315 315 315 315 317 316 314 316 316 316 319 315 311 315 314 311 313 312 312 312 311 313 314 313 313 313 313 316 317 315 315 315 315 315 315 315 315 315 316
315 315 314 314 315 315 315 314 315 317 318 319 319 320 322 323 323 323 324 325 326 327 328 325 319 312 309 309 310 309 309 311 312 311 312 314 312 310 310 309 311 313 313 311 311 311 311 312 315 315 314 315 315 316 316 313 315 319 315 310 311 311 313 313 312 313 312 312 312 311 313 313 312 312 312 313 315 316 315 314 314 315 315 315 315 315 315 315
314 314 315 315 315 314 314 315 316 317 318 319 319 320 322 323 324 325 326 326 325 325 323 316 310 308 310 310 309 308 308 310 312 311 312 313 311 310 309 310 311 314 312 311 310 311 312 313 315 314 314 314 314 314 314 313 313 320 318 310 312 312 311 312 312 312 311 312 312 312 313 312 313 313 312 312 314 315 314 315 314 314 315 314 315 315 315 315
313 314 315 315 314 313 313 314 315 317 317 318 319 320 322 323 326 327 327 324 320 317 313 309 309 310 310 309 308 308 308 310 311 312 312 311 310 309 310 311 312 313 312 310 311 311 312 313 314 313 313 313 314 312 312 314 313 318 317 311 311 311 311 312 312 312 311 312 312 312 312 312 312 312 311 313 315 315 314 315 314 314 314 314 315 315 315 315
314 315 315 315 314 312 312 314 315 316 317 318 320 320 322 324 326 325 322 316 311 309 309 309 310 310 310 308 308 308 309 310 311 313 312 310 309 309 310 312 313 313 311 310 310 311 312 313 313 314 312 311 312 312 312 314 314 314 313 311 311 311 311 312 312 312 311 312 312 312 312 311 312 311 312 314 314 314 314 314 314 315 314 314 315 315 315 315
314 315 315 315 313 311 312 314 314 315 316 317 319 319 322 323 321 317 312 309 308 309 310 310 310 310 309 308 308 308 309 310 309 311 312 310 309 311 312 313 314 313 310 311 311 311 313 313 313 313 313 312 312 311 312 314 314 313 311 311 311 311 311 311 312 311 312 312 312 314 313 311 311 312 314 315 314 314 314 314 314 315 314 314 315 315 315 315
314 315 315 313 311 310 312 313 313 314 313 314 315 315 316 315 312 309 308 308 309 310 310 310 309 309 308 308 308 308 310 311 310 310 312 310 311 314 314 313 313 312 310 311 311 311 313 313 313 313 313 313 311 311 311 312 312 312 312 313 311 310 312 311 312 311 312 312 311 313 312 310 311 312 315 314 314 314 314 315 314 314 315 314 315 315 315 314
315 315 314 312 310 310 311 312 312 312 311 310 310 309 309 308 308 308 309 309 309 310 310 309 309 308 308 308 308 309 311 312 311 311 312 311 314 316 313 312 312 311 311 311 311 311 312 313 313 313 313 312 312 312 312 312 311 312 313 315 313 312 313 311 310 311 312 313 312 311 312 313 313 314 315 313 313 314 313 314 314 314 314 314 315 315 315 315
314 314 313 312 311 310 310 311 311 311 311 310 308 308 308 308 308 309 309 309 309 309 309 309 309 308 308 308 309 309 311 313 312 312 312 312 315 315 311 311 311 311 312 311 312 311 312 313 313 313 312 312 312 311 312 310 310 312 312 315 316 316 315 310 309 312 311 312 311 310 313 317 317 312 312 313 313 313 314 314 314 314 314 314 314 315 315 315
312 312 312 311 310 310 309 310 311 310 310 309 308 308 308 308 309 309 309 309 309 309 309 309 308 307 308 309 310 309 310 313 314 313 312 312 314 313 311 312 312 312 312 312 312 311 312 313 312 313 312 312 311 311 315 312 313 314 310 315 318 315 317 311 308 311 312 312 311 311 313 317 317 311 309 312 313 313 313 313 314 314 314 314 314 314 315 315
312 312 312 311 310 309 309 310 310 310 309 308 308 308 308 308 308 308 309 309 309 309 309 309 307 307 308 309 309 310 310 311 314 314 313 313 313 311 311 312 312 312 313 312 313 313 314 313 313 313 311 313 312 312 318 317 319 318 311 317 317 313 318 314 307 308 313 312 310 311 314 316 316 311 310 312 312 312 313 313 313 314 314 314 314 314 315 315
313 313 312 310 310 309 309 309 309 309 308 308 308 308 308 308 308 309 309 309 309 309 309 308 307 307 308 309 309 311 310 310 314 315 313 314 312 311 312 311 312 313 313 313 313 314 314 314 313 312 311 312 313 316 319 319 323 321 316 320 318 314 316 314 309 307 309 312 311 311 313 318 316 311 312 313 313 313 312 313 313 313 314 314 314 314 314 314
313 312 311 310 309 309 309 308 309 308 308 308 308 308 308 308 308 308 308 308 309 308 308 307 307 307 308 309 311 311 311 310 312 315 314 313 311 311 312 311 312 313 314 313 313 314 314 313 312 313 312 311 313 318 317 316 319 318 318 320 317 316 315 314 314 308 307 311 313 312 312 317 316 310 312 313 312 313 313 314 314 314 314 314 315 314 314 315
313 312 310 309 309 309 308 308 308 308 308 308 308 308 308 308 308 308 308 307 307 307 307 307 306 308 309 309 311 312 311 310 312 314 314 312 311 311 311 311 312 313 314 313 313 314 314 311 312 316 315 312 313 317 317 318 318 317 318 317 314 315 313 315 318 311 308 313 314 315 314 316 316 311 312 313 312 313 313 314 314 315 316 315 316 315 315 315
314 312 311 310 309 309 308 308 307 308 308 307 308 308 307 307 307 307 306 306 307 307 309 308 307 310 311 308 310 312 312 311 312 314 313 311 311 311 312 311 312 313 313 313 313 313 313 312 313 317 316 314 314 315 319 321 320 319 319 319 319 320 316 316 317 309 308 314 315 316 316 316 318 315 313 313 312 311 312 314 314 315 316 316 316 316 316 316
315 313 311 310 309 308 308 308 307 307 308 307 307 307 307 307 308 309 308 307 308 308 309 309 307 311 311 308 310 312 312 312 312 313 312 311 311 311 312 312 313 314 313 315 316 311 313 316 316 317 316 315 314 314 316 317 317 317 318 320 320 320 317 314 315 308 305 314 317 316 318 316 317 316 312 312 312 309 310 312 314 315 315 315 316 315 315 315
316 315 313 311 309 308 308 307 307 307 307 307 307 308 308 308 309 310 309 308 309 309 309 308 308 311 311 308 311 313 312 312 312 312 312 311 311 312 312 313 314 314 312 312 314 311 314 317 318 318 315 313 314 314 316 315 316 318 318 319 317 317 317 312 313 311 305 312 317 315 317 317 316 317 311 310 310 310 311 312 313 316 315 316 316 315 316 315
316 316 314 312 310 308 308 307 307 307 307 307 307 308 308 308 310 309 308 308 309 309 310 308 308 311 311 310 312 313 312 313 313 312 312 311 312 312 312 314 315 315 312 310 313 314 315 317 318 314 308 308 312 315 318 318 320 322 318 317 316 316 316 312 311 312 307 311 318 317 317 317 316 316 311 308 309 312 312 312 312 314 314 314 315 315 315 314
316 316 315 313 310 309 308 308 307 306 307 307 308 308 308 309 310 309 307 308 308 308 309 309 308 309 311 311 312 312 311 312 313 312 312 311 312 311 312 313 316 316 314 313 315 316 317 318 314 306 304 310 313 314 317 318 319 321 319 318 318 315 316 315 313 312 310 310 315 317 316 316 315 315 313 307 305 309 310 310 311 311 312 313 314 314 313 313
317 315 315 314 311 309 309 308 307 306 307 307 307 308 308 309 310 309 307 307 308 309 309 309 308 309 311 312 312 312 311 311 312 312 312 312 312 312 312 312 314 315 313 313 314 315 316 312 305 304 308 315 314 312 316 318 316 316 321 327 324 318 317 316 313 313 312 309 311 313 314 321 323 321 320 310 304 306 308 309 311 310 311 312 312 312 313 313
316 315 315 314 311 310 309 308 308 307 307 307 308 308 308 309 309 308 307 308 308 309 309 309 309 309 311 311 312 312 311 311 312 312 312 312 312 312 312 311 313 314 314 314 313 314 314 306 303 308 312 315 315 314 317 319 316 314 320 328 326 322 320 316 314 315 316 313 310 310 313 327 331 326 325 318 312 313 308 305 309 312 312 311 312 312 312 313
316 315 314 313 311 310 309 308 308 306 307 307 307 308 308 309 309 307 309 310 310 308 308 309 309 309 311 312 312 311 312 312 312 313 312 312 312 312 312 310 310 313 313 312 312 314 311 304 307 313 313 315 316 315 316 318 318 316 315 319 322 322 322 321 317 316 318 314 309 309 314 321 325 324 325 319 317 320 313 306 308 313 314 313 313 314 313 313
315 315 314 312 311 310 308 308 308 306 307 307 307 308 308 309 308 307 309 310 311 310 308 309 309 309 311 312 312 311 314 314 312 313 313 313 312 311 313 312 310 311 309 310 312 312 309 307 310 313 314 316 315 314 315 315 318 318 313 315 322 322 323 324 320 318 319 313 311 315 317 314 317 320 320 315 315 320 319 313 310 311 313 313 312 313 313 314
315 314 314 312 311 310 308 308 308 306 307 307 307 308 308 309 307 308 311 309 309 309 308 308 308 309 312 312 312 311 313 314 313 314 313 313 312 311 313 312 312 315 308 309 314 311 309 314 313 313 315 315 315 316 314 314 318 317 310 312 319 320 323 325 323 323 317 310 316 320 313 312 319 322 319 313 313 318 320 319 314 311 313 313 312 312 311 311
315 314 313 312 312 311 308 308 308 306 307 307 307 308 308 308 307 309 311 308 307 308 308 308 309 311 312 311 311 311 311 312 313 315 312 313 312 310 312 310 310 314 308 309 318 312 309 313 311 312 315 315 314 312 311 318 320 311 305 311 314 316 320 322 322 324 317 314 322 319 310 310 318 326 324 314 311 317 320 318 314 311 312 313 313 313 312 312
315 315 314 312 312 311 309 309 307 306 308 308 308 308 308 308 308 308 308 308 310 309 306 307 310 311 311 311 310 310 312 312 312 313 312 312 311 309 311 309 309 314 315 315 319 314 308 309 308 310 312 311 309 307 307 314 313 306 310 315 315 319 322 321 322 320 314 319 324 314 310 311 312 321 326 315 312 316 317 316 313 311 312 312 313 314 314 315
315 315 314 312 312 312 309 308 307 307 308 308 308 308 308 310 310 308 307 310 313 309 306 308 309 311 311 311 312 311 313 312 310 312 313 311 311 310 310 311 311 317 319 318 317 313 311 311 310 309 308 307 309 310 306 305 305 310 321 320 315 320 322 322 325 317 314 324 320 310 309 311 310 317 319 313 314 315 314 315 315 312 312 312 313 313 313 314
315 315 314 313 313 312 310 308 307 308 309 309 309 308 308 310 310 309 307 309 312 310 309 309 309 311 312 311 313 313 315 314 310 312 315 313 312 311 311 314 316 315 314 316 316 315 315 315 311 309 308 308 314 316 310 309 312 315 319 319 318 320 317 320 325 317 316 321 313 307 309 309 311 316 314 314 317 314 310 311 313 311 311 313 313 313 313 314
314 314 313 312 313 312 310 308 307 308 309 310 308 308 312 311 309 309 308 308 310 309 310 311 310 312 312 311 313 313 314 314 312 312 313 313 312 311 312 315 317 317 315 317 317 315 316 317 313 313 312 310 313 317 315 315 316 314 314 317 321 319 313 316 318 312 314 316 309 306 309 311 314 315 314 316 314 310 307 307 309 310 311 313 312 312 314 314
314 313 312 311 313 312 309 308 307 308 310 309 307 309 314 312 310 310 309 307 309 309 311 313 312 312 312 313 313 313 313 313 312 312 312 313 313 312 313 312 313 320 321 317 317 315 316 317 316 315 313 311 312 315 317 317 314 313 314 315 318 323 321 319 319 318 318 315 310 307 310 318 319 312 311 312 307 306 308 308 308 309 310 312 311 312 314 314
312 312 312 311 312 311 309 308 308 310 310 308 307 310 311 309 311 312 308 309 312 312 311 311 312 312 312 313 312 311 314 314 312 313 313 313 313 312 313 311 312 320 320 314 314 315 314 315 314 311 308 311 313 312 313 315 314 313 312 312 314 321 322 316 312 315 316 313 311 310 313 320 316 309 309 306 304 306 307 307 309 309 310 311 310 311 313 314
310 310 310 311 311 311 310 309 309 311 310 307 308 310 309 309 314 314 308 310 313 311 310 312 313 314 312 312 313 311 312 315 313 313 313 313 313 312 312 311 312 315 315 314 316 315 313 312 313 311 309 310 311 309 309 312 315 313 311 314 315 314 317 314 306 306 309 311 313 312 314 318 313 311 314 310 309 311 308 307 309 310 311 310 310 311 312 315
309 309 310 311 311 311 310 309 310 311 309 307 308 310 309 308 312 314 310 310 312 310 311 312 312 313 312 312 314 313 313 314 313 313 314 313 313 313 312 312 311 311 312 313 316 317 316 314 312 313 313 309 307 307 306 306 310 315 315 314 311 307 313 316 311 312 312 313 317 314 312 316 314 314 317 313 311 314 311 308 306 309 311 310 310 311 313 315
308 309 310 310 311 312 311 309 310 311 308 307 308 311 314 309 308 312 310 307 310 311 312 312 311 312 312 312 313 312 313 314 313 313 313 312 314 314 312 312 311 309 309 309 311 315 318 316 311 310 314 311 308 310 311 307 306 312 315 311 311 314 316 313 312 317 315 311 321 319 310 310 311 316 320 313 311 316 313 308 307 309 311 310 311 313 314 315
309 310 311 311 311 314 313 310 311 311 307 307 308 311 316 314 309 309 308 306 311 313 311 313 313 311 311 311 312 312 312 313 312 312 313 312 313 312 311 312 312 309 306 308 311 312 316 318 313 310 312 312 311 313 316 314 309 308 308 306 313 321 320 314 311 315 315 311 317 319 314 315 314 316 321 315 314 316 311 311 311 309 310 312 313 314 313 314
310 311 311 312 313 315 314 311 312 311 307 309 309 309 312 313 311 309 306 307 312 311 312 316 314 311 312 312 311 312 312 313 312 312 313 312 311 311 309 311 313 309 306 308 313 313 313 316 315 312 311 312 316 315 314 316 312 310 310 309 313 315 313 313 312 312 316 316 317 316 318 327 322 313 315 316 316 314 310 312 312 308 311 313 312 314 313 313
311 311 310 312 314 315 313 312 312 309 308 310 311 310 310 311 312 311 308 308 310 309 312 316 314 313 315 313 311 312 313 313 312 312 313 311 310 311 310 310 311 310 308 308 313 316 314 313 316 315 313 314 317 313 309 313 313 311 311 311 312 313 312 315 312 310 313 314 316 315 314 326 325 312 312 315 312 307 304 305 307 308 312 313 312 313 313 313
310 311 310 311 313 313 312 312 311 309 310 311 310 311 311 310 313 312 308 309 311 310 310 314 316 317 315 312 311 313 313 314 312 312 314 312 312 312 310 308 308 308 310 311 312 313 313 316 319 317 316 315 313 307 303 308 313 311 311 312 313 313 314 317 316 313 309 307 310 312 311 321 324 310 308 309 304 302 301 301 305 309 313 312 312 313 313 313
308 308 309 310 311 312 312 312 311 310 311 310 308 309 310 310 312 312 310 310 312 312 311 313 315 313 312 312 312 313 312 312 312 312 314 313 311 311 309 307 308 309 310 312 312 309 311 317 319 316 316 315 312 308 305 307 312 312 313 314 312 313 315 319 320 317 313 309 311 312 311 321 325 306 300 302 300 302 304 303 306 311 312 311 312 312 313 313
305 306 307 309 309 311 312 312 312 312 310 308 310 312 310 310 311 312 312 312 312 313 316 316 311 309 313 315 313 313 312 312 313 312 313 314 310 308 307 307 309 310 310 311 312 310 311 316 316 315 317 316 315 314 313 313 313 315 318 315 312 314 315 314 314 314 315 314 314 315 314 322 327 312 303 304 304 304 304 304 308 311 312 311 311 312 313 313
304 305 306 307 308 309 310 309 310 311 310 309 312 313 311 311 310 310 312 313 311 312 315 315 310 311 318 315 310 312 312 313 315 312 312 314 310 307 307 307 308 309 310 311 310 310 313 317 315 314 315 315 315 316 316 317 314 314 320 316 312 313 312 312 313 313 314 314 313 316 316 316 318 315 311 311 311 310 307 306 309 311 311 311 311 311 312 312
303 304 305 305 306 307 306 306 307 309 310 310 311 312 313 313 311 309 311 313 311 310 312 312 311 313 317 313 310 312 312 312 315 313 312 314 312 310 308 307 307 307 309 310 309 312 318 317 313 313 314 312 313 315 316 318 316 315 317 315 311 311 311 315 318 314 314 313 311 314 314 312 312 313 314 315 315 315 310 307 309 311 311 311 311 311 312 312
302 304 304 304 305 305 304 304 305 308 310 310 310 310 311 313 313 311 312 312 311 312 313 313 313 314 315 312 311 312 311 311 313 313 313 313 313 311 308 307 307 307 309 309 307 314 320 316 312 314 313 312 315 318 317 317 317 316 316 314 312 311 311 314 316 313 313 313 312 313 313 312 312 314 317 318 316 314 310 307 310 312 310 310 311 311 312 312
302 303 302 303 305 305 305 304 304 307 309 309 310 311 310 312 314 313 312 311 311 313 314 314 315 315 314 312 312 313 312 311 312 313 313 313 314 313 310 309 308 307 310 309 307 312 317 314 313 314 312 312 317 320 318 316 316 316 316 314 312 311 311 313 313 313 314 313 312 313 313 312 311 314 318 316 312 311 310 308 310 311 310 310 310 311 312 312
301 301 301 302 303 303 304 304 303 305 308 309 311 311 310 311 312 312 312 312 313 313 313 315 317 316 315 313 313 315 314 311 312 314 313 313 314 315 314 313 310 308 310 311 308 309 313 315 316 313 311 312 315 316 317 316 315 315 315 313 312 311 311 312 312 312 312 312 312 314 315 314 311 313 315 312 308 309 308 308 309 310 310 310 310 311 311 311
300 301 301 302 302 301 302 303 303 305 306 308 310 310 310 310 311 312 312 313 316 315 312 314 316 316 315 314 314 317 315 313 314 315 313 314 315 315 315 316 314 309 309 312 310 307 310 317 316 312 311 313 313 314 315 314 314 315 314 312 311 311 311 311 312 312 311 312 311 312 315 314 309 308 310 309 308 308 307 308 309 310 310 309 309 311 311 311
300 301 301 302 303 302 302 302 303 305 306 307 308 308 309 310 310 312 312 310 313 315 313 313 315 315 315 314 316 317 314 314 315 313 311 312 313 313 313 313 313 313 312 312 313 311 311 314 314 312 313 314 312 311 312 311 311 312 313 312 311 311 311 311 311 311 311 312 312 311 313 312 309 307 308 307 306 305 306 307 309 309 309 309 309 310 311 310
300 300 300 302 303 302 302 303 304 305 306 306 306 307 309 309 309 311 312 310 310 312 313 312 314 316 316 315 316 315 311 310 311 309 308 310 310 310 310 309 309 313 313 313 315 315 314 316 316 313 313 314 309 308 312 312 311 311 311 312 312 311 311 311 310 311 312 312 313 312 311 311 310 309 310 310 307 305 306 308 309 309 309 309 309 310 311 310
Wind_Speed
29 31 32 32 29 30 33 32 31 31 33 35 36 36 35 32 30 27 26 25 25 23 21 20 20 21 21 21 21 21 20 20 21 22 26 24 19 18 17 13 12 12 12 14 14 13 12 12 13 14 14 13 11 13 12 10 10 7 3 3 2 2 3 5 7 7 3 0 4 9 13 9 3 7 7 3 6 6 8 12 11 10 11 7 5 4 7 14
30 32 31 30 29 30 34 32 32 31 32 34 35 35 34 33 31 28 27 26 26 23 21 21 21 22 22 21 21 20 19 19 20 26 28 22 18 18 18 15 13 13 14 15 15 14 14 14 15 16 15 13 10 12 11 9 9 4 3 4 3 5 5 6 8 9 4 2 4 10 11 10 5 6 9 4 4 5 5 10 11 11 13 12 8 6 8 12
31 32 30 28 29 31 33 32 32 31 31 32 33 35 34 33 32 29 28 27 26 24 23 22 22 22 22 21 20 18 18 16 21 30 27 21 20 18 17 17 15 14 14 15 14 13 13 13 15 17 15 12 10 12 10 8 7 2 4 3 4 6 4 6 7 7 6 1 4 10 10 8 6 6 9 5 3 3 6 10 12 13 15 15 12 9 9 12
33 32 29 27 30 31 31 32 31 30 30 31 33 34 35 34 32 30 28 27 25 24 24 23 23 22 22 21 19 17 14 11 19 30 25 21 21 19 18 17 16 16 14 14 14 14 13 13 16 17 12 8 8 11 8 7 7 3 5 4 4 6 3 4 6 4 5 4 4 9 9 6 6 7 9 7 3 4 11 15 15 15 13 13 15 13 11 12
33 31 29 28 31 31 31 33 31 29 28 30 32 34 36 35 32 30 28 27 26 24 24 23 22 22 21 20 18 15 11 3 12 23 22 21 21 19 19 17 16 17 15 14 15 15 14 14 18 16 9 5 6 8 5 7 9 5 3 3 4 6 3 2 5 4 5 5 7 10 8 7 8 8 10 10 6 5 8 11 13 15 13 11 14 15 13 13
33 30 30 30 32 31 29 31 31 28 27 29 32 34 36 34 32 31 29 27 25 24 23 22 21 21 21 20 18 16 14 4 3 9 18 20 20 20 19 17 17 17 15 14 16 15 14 17 18 14 8 4 5 5 5 9 9 4 1 3 7 6 3 3 3 3 4 7 10 11 8 8 9 6 10 14 14 11 5 3 4 9 13 13 13 15 15 14
33 32 32 30 31 30 27 28 29 27 27 29 33 35 34 32 32 30 29 27 24 23 22 22 21 22 22 20 18 18 20 15 3 3 14 20 20 21 18 17 18 17 16 15 18 17 16 19 18 13 8 4 4 4 7 10 6 4 2 5 9 6 3 3 3 3 4 7 9 10 8 8 9 6 6 14 20 17 12 8 4 3 7 13 14 15 14 13
33 33 33 30 28 28 27 27 28 26 27 31 33 33 31 31 31 30 28 25 24 24 23 23 23 23 22 20 21 18 20 24 10 5 11 20 20 21 18 18 19 17 17 17 18 18 17 19 18 13 6 2 6 6 9 8 2 2 4 6 9 6 4 4 3 5 5 6 8 8 7 5 7 6 6 15 17 14 16 16 13 10 7 9 14 15 15 14
34 32 32 30 28 27 27 27 27 26 27 31 31 30 30 31 31 29 27 26 26 25 24 25 24 24 22 21 21 14 18 26 15 5 7 19 20 20 19 18 19 17 17 17 17 18 17 18 19 14 4 5 8 8 11 8 1 3 6 9 11 7 5 5 5 7 6 7 8 6 3 2 4 4 8 15 14 13 16 16 16 16 14 11 11 15 16 15
34 31 29 28 28 28 28 28 26 25 27 30 31 31 32 32 30 29 28 27 27 26 25 25 24 24 21 22 18 9 16 24 19 8 6 16 19 18 20 18 18 17 17 18 17 18 17 16 17 13 6 8 10 8 10 5 3 8 11 12 11 8 6 5 5 7 7 7 6 5 2 1 3 2 6 8 6 7 11 15 16 16 16 15 12 14 16 16
33 30 26 24 25 27 29 28 26 25 26 30 31 32 32 32 31 30 29 28 27 26 25 24 23 22 21 22 18 9 14 18 18 13 7 14 19 17 17 17 17 17 17 18 18 19 16 13 15 11 4 8 10 6 6 4 6 14 17 11 7 6 7 4 5 6 5 5 3 4 3 1 3 2 7 8 6 4 5 10 15 15 16 16 14 13 16 17
33 30 25 22 22 24 26 27 27 25 24 28 30 31 32 31 31 29 28 27 26 25 25 23 21 21 20 20 20 15 12 12 14 12 9 15 18 15 15 15 16 16 16 16 16 18 15 12 15 10 4 11 9 4 6 7 11 14 13 6 5 5 5 4 3 3 2 3 3 4 1 3 3 7 9 7 9 9 7 7 10 14 16 16 16 14 14 17
32 29 24 22 23 22 23 25 26 25 24 27 29 30 30 29 29 27 27 25 24 24 23 22 19 20 19 15 18 19 12 8 11 10 10 17 17 15 14 13 15 15 15 14 14 17 15 11 13 11 10 13 7 6 9 9 11 9 5 4 3 5 3 4 3 1 3 2 3 4 2 5 6 10 9 7 9 9 10 9 9 12 15 17 17 16 15 15
30 28 24 23 23 23 23 23 24 25 25 27 28 29 28 27 27 25 24 23 22 23 22 20 19 19 18 12 13 20 16 8 10 10 11 18 18 15 14 13 13 13 13 13 12 15 14 11 11 11 10 10 10 12 8 5 6 4 2 2 2 2 3 4 4 1 4 2 3 5 2 6 8 8 5 9 12 10 12 12 10 11 13 17 18 19 18 17
29 27 25 23 23 23 23 23 23 24 25 27 28 27 26 25 24 23 22 21 21 21 20 20 19 18 15 10 10 16 19 13 9 10 13 18 18 16 15 14 13 12 13 14 12 12 13 12 12 10 9 12 15 11 4 4 4 3 2 0 2 3 4 6 3 1 3 2 2 5 2 6 9 8 3 5 8 10 14 14 13 14 14 15 17 18 19 19
28 27 26 25 24 23 23 24 23 24 26 28 27 26 25 23 22 21 20 19 19 19 19 19 20 17 9 8 10 13 19 18 12 11 14 18 18 16 15 13 13 12 13 14 13 13 14 13 11 10 10 11 10 6 4 4 3 4 2 3 1 3 2 4 2 2 2 3 1 2 2 3 3 4 2 3 2 3 7 9 10 14 15 16 17 18 19 19
27 27 26 25 25 23 24 24 23 25 26 27 26 24 23 22 21 20 19 19 18 18 18 18 20 16 5 7 11 12 18 20 15 12 15 18 17 16 15 13 13 12 13 14 13 13 13 11 10 8 5 4 3 5 5 1 2 2 2 3 2 3 3 2 1 3 3 3 1 1 2 6 6 6 6 5 6 8 9 8 7 9 13 15 15 17 18 19
25 26 25 26 25 24 24 24 24 24 25 26 24 23 22 20 19 19 19 20 20 18 15 16 18 10 6 11 12 12 18 20 17 13 16 19 16 15 15 13 12 13 13 13 12 12 10 7 7 4 3 3 2 5 5 4 5 5 2 4 2 2 3 3 3 2 3 3 2 0 3 9 10 13 17 16 12 14 15 14 14 14 15 16 16 17 17 18
23 23 24 25 25 25 24 24 24 24 25 26 25 25 23 21 19 17 21 24 21 13 6 16 21 6 2 13 14 12 16 18 16 14 17 19 17 15 14 12 13 15 13 9 6 8 8 5 4 4 2 4 6 5 7 7 8 9 6 5 5 3 3 5 4 4 1 3 3 4 5 8 9 11 17 20 14 13 16 17 19 20 20 20 19 20 20 20
22 21 23 24 24 25 24 24 24 24 27 27 30 29 24 21 15 10 20 23 17 5 0 21 28 5 3 14 19 14 15 17 17 16 19 20 19 17 14 13 14 11 7 5 4 4 6 5 4 5 7 8 7 6 6 5 7 8 6 4 4 4 2 3 3 5 1 3 3 3 4 8 10 10 16 23 16 13 18 19 22 22 21 23 22 22 23 23
22 19 21 22 24 25 23 25 24 25 26 27 34 29 22 24 13 9 20 15 11 5 3 19 30 7 4 13 21 18 17 15 15 18 20 20 20 16 13 12 10 4 1 3 5 3 4 5 7 7 7 7 6 7 8 7 7 6 6 5 2 2 3 2 2 4 3 1 2 3 3 9 11 10 16 20 13 13 19 19 21 22 21 23 24 24 24 24
22 20 20 20 23 24 24 25 24 26 27 29 36 25 21 29 17 17 25 9 9 10 2 15 28 9 3 12 20 19 16 11 10 19 21 21 21 15 11 9 6 4 1 3 6 3 3 4 7 7 7 8 6 5 8 8 7 5 4 5 2 2 2 2 3 3 4 0 2 3 3 9 11 9 15 18 14 18 21 20 21 23 23 26 27 28 28 27
22 20 19 19 22 24 24 25 24 28 30 32 35 22 20 27 14 18 24 7 7 10 2 11 25 15 4 11 18 15 12 9 9 19 22 22 20 14 12 8 5 5 3 4 6 5 5 5 6 9 10 10 6 4 9 8 5 4 4 5 2 2 2 2 2 2 3 2 1 1 2 7 8 6 10 13 14 17 18 18 20 21 23 27 27 28 29 28
23 20 19 19 22 24 24 25 25 29 31 32 31 21 21 25 15 20 20 6 3 6 2 6 18 21 10 9 16 12 8 8 11 19 22 22 19 12 11 9 6 5 4 6 7 6 4 4 4 11 8 8 7 4 7 7 3 1 3 6 4 4 4 3 2 1 2 2 2 1 3 6 4 4 7 5 5 9 9 10 13 12 15 19 21 23 22 22
23 21 19 19 22 24 25 25 26 29 30 32 30 21 22 22 17 22 15 5 2 4 3 5 9 16 13 8 14 13 7 6 10 19 22 22 19 12 7 8 6 5 5 6 7 4 3 2 6 10 5 7 8 4 5 6 4 1 3 6 6 8 7 3 3 4 3 2 3 3 2 5 4 4 7 4 6 8 7 8 9 7 8 12 15 18 17 18
23 21 19 20 22 24 25 23 25 29 30 31 28 21 22 22 19 21 11 5 1 2 4 8 6 10 14 9 12 13 6 3 9 19 23 20 19 13 7 5 3 2 6 6 4 2 1 1 4 6 6 7 7 5 6 6 6 2 4 5 7 8 9 7 5 4 2 1 2 3 2 4 6 5 7 5 7 10 8 8 8 9 9 9 11 14 15 16
24 21 19 19 21 25 26 23 27 32 30 30 27 22 23 23 21 17 7 6 2 3 6 8 7 11 14 12 16 13 4 5 10 16 22 19 17 13 8 4 2 2 5 5 2 1 2 3 3 5 6 6 6 5 6 7 8 3 3 6 9 9 9 7 6 4 2 2 2 3 3 2 4 6 6 5 6 10 8 7 9 12 10 8 7 8 10 11
25 22 18 19 20 24 25 23 30 34 30 28 27 23 23 24 20 13 6 3 2 4 6 6 8 12 15 17 19 10 5 11 9 10 19 19 14 9 5 6 5 4 3 5 5 2 3 5 5 6 5 4 5 4 5 10 6 3 3 6 7 8 8 6 6 4 1 1 3 4 3 1 5 6 5 5 4 8 8 6 7 10 11 11 9 5 2 3
25 21 17 17 17 19 22 22 28 31 27 28 27 23 25 24 17 8 4 2 3 3 5 8 10 11 15 17 13 6 8 8 4 8 18 16 12 7 3 6 9 8 3 3 5 2 1 5 6 6 5 4 3 2 1 5 4 4 6 7 7 6 6 5 5 4 3 2 4 4 2 1 5 6 4 3 2 7 6 5 6 5 8 12 14 13 12 12
24 20 17 16 17 20 23 22 25 28 28 30 27 26 28 22 11 6 2 3 3 2 3 8 9 10 14 12 3 2 6 3 4 11 12 9 9 6 8 9 9 8 4 6 4 1 2 1 2 2 3 5 5 5 5 4 8 11 7 7 8 6 5 4 3 4 3 2 5 5 2 0 3 6 4 2 3 5 4 2 3 3 7 12 14 16 17 18
25 23 19 17 17 21 24 23 26 29 30 30 28 30 26 12 4 4 5 3 3 2 2 4 4 9 15 12 5 3 3 2 5 11 8 4 5 6 8 7 5 5 3 4 3 3 3 3 1 1 5 8 7 6 8 6 8 8 4 6 6 4 4 4 4 3 2 4 6 4 2 1 3 5 3 4 5 5 5 4 3 2 7 10 12 14 15 17
27 25 20 18 17 19 23 24 27 32 32 30 32 31 18 4 1 5 4 3 3 4 5 4 4 6 12 12 8 5 4 2 4 7 5 3 4 5 5 5 4 4 1 3 2 3 2 1 1 1 4 6 6 6 5 4 4 5 5 7 5 2 2 2 3 1 2 5 3 2 1 1 5 7 6 7 8 7 8 7 6 4 7 8 8 10 11 14
26 23 21 20 17 18 21 22 28 34 33 33 33 22 8 3 7 6 3 3 2 2 4 4 2 5 10 9 6 5 4 2 5 5 3 3 4 4 1 2 6 5 3 5 4 2 0 3 1 3 2 5 5 6 3 2 0 4 6 6 5 3 2 2 3 2 3 4 2 3 2 2 4 6 8 11 10 9 10 10 9 6 5 7 5 5 8 12
25 23 22 21 17 18 20 23 31 34 34 35 26 11 5 6 7 5 6 4 1 2 2 4 5 6 8 5 4 6 4 1 5 4 2 4 5 5 3 3 4 5 4 4 3 5 4 3 3 3 2 4 4 3 6 6 4 3 2 5 5 5 5 4 4 3 3 2 2 3 2 3 3 3 6 9 11 12 13 13 12 9 5 5 3 1 6 11
22 23 23 20 20 22 22 27 33 35 36 31 15 5 8 10 5 5 8 4 1 2 3 3 7 8 4 2 1 5 2 1 4 4 3 5 6 8 7 6 6 4 6 5 3 2 3 3 3 2 1 4 4 2 4 7 3 2 1 5 3 4 5 3 3 5 3 0 1 2 3 4 3 5 6 6 9 11 12 12 12 12 7 4 4 4 7 13
21 24 24 22 26 26 24 30 33 34 36 24 8 7 9 6 3 5 6 5 5 6 6 4 3 5 3 2 0 5 1 2 5 4 4 4 4 7 8 6 7 7 6 6 3 1 2 2 4 4 3 2 1 2 2 3 3 2 2 3 4 3 8 6 2 1 3 1 2 1 3 5 3 5 6 2 4 7 6 6 8 11 8 3 3 7 11 16
24 27 26 26 28 26 25 31 32 33 30 14 6 10 5 1 4 4 5 7 9 11 10 5 1 4 6 3 4 7 2 3 4 3 4 4 3 6 7 4 7 10 7 4 3 3 5 1 3 2 2 2 1 4 6 6 3 4 3 5 4 3 5 5 2 3 3 2 4 1 3 4 1 3 5 2 4 7 6 4 4 8 6 4 8 13 17 20
28 30 27 26 27 24 25 30 31 30 20 6 7 10 2 2 4 4 7 9 9 8 6 5 4 3 7 6 5 8 6 5 5 4 5 4 4 8 10 6 7 12 10 4 2 2 4 3 3 2 2 1 3 4 5 6 6 3 5 5 4 3 2 2 2 2 1 2 4 3 3 3 4 4 4 2 8 9 5 3 4 8 8 10 15 19 21 23
31 28 21 26 27 22 24 28 29 25 12 4 10 9 2 3 2 4 10 10 8 6 4 6 3 1 5 7 5 7 7 6 8 6 4 4 4 6 12 8 4 10 13 7 3 2 4 4 1 1 1 1 3 1 5 1 4 4 3 3 2 2 4 2 3 4 3 3 3 4 3 3 6 6 4 7 10 8 6 4 6 9 13 17 22 24 25 24
32 18 12 26 29 22 25 28 24 17 7 5 9 5 1 4 2 4 11 10 4 3 4 5 4 3 4 4 4 6 5 5 8 6 4 5 4 4 8 9 5 7 9 5 3 2 3 3 3 1 3 1 2 3 6 7 4 2 3 4 2 1 3 1 1 2 3 4 3 2 3 5 6 5 7 9 7 6 7 7 8 10 16 22 25 26 25 23
27 9 7 26 29 25 30 25 14 9 4 2 3 2 1 3 4 5 9 6 2 2 3 4 5 5 5 4 4 5 4 3 6 6 3 5 6 4 8 12 10 10 7 4 3 4 2 3 5 2 0 3 3 3 2 4 5 5 5 7 7 4 4 3 2 1 2 3 4 4 3 8 6 4 6 7 5 5 7 9 11 14 20 24 25 24 22 21
15 3 7 23 29 32 31 16 4 4 3 1 3 3 3 4 5 6 7 5 2 2 3 4 3 3 5 5 4 6 7 5 5 6 4 6 8 5 6 11 15 18 12 4 3 3 3 4 5 2 3 4 4 3 1 3 1 2 2 4 5 4 5 6 5 4 2 2 2 3 1 7 6 3 5 7 7 6 6 8 13 18 23 24 23 21 20 20
6 6 10 18 27 34 25 8 3 4 2 2 3 4 4 4 4 5 5 4 2 2 2 2 2 2 3 3 4 7 8 5 6 8 5 5 6 4 5 12 17 16 10 4 3 4 3 4 4 1 2 3 4 3 2 1 1 1 3 3 5 3 3 5 5 4 4 4 3 3 2 7 6 3 5 8 9 8 7 9 17 22 24 23 20 20 20 20
8 9 10 11 21 28 17 5 8 8 3 2 3 4 3 2 3 5 5 4 2 3 3 2 2 2 2 3 5 7 9 6 5 8 5 3 5 3 7 18 20 13 8 7 8 9 6 3 5 4 2 3 3 3 3 3 1 3 4 4 5 4 6 5 2 4 3 5 7 5 4 7 6 4 3 5 6 6 6 11 19 24 25 22 18 18 19 18
6 7 8 8 15 20 9 1 5 8 4 5 5 4 3 2 1 4 5 4 2 3 4 2 2 3 3 3 4 5 8 5 3 6 4 2 2 1 4 17 20 12 7 7 10 13 8 3 6 7 6 6 5 5 4 3 3 3 2 5 8 7 9 6 3 4 3 5 7 7 6 5 5 5 5 4 2 2 5 11 16 21 25 22 17 15 16 16
3 2 3 5 6 8 2 3 3 4 5 6 4 4 5 3 1 2 4 3 2 3 3 1 3 4 3 4 5 5 8 3 3 3 5 4 2 2 1 10 14 9 4 5 13 14 4 1 6 8 10 12 11 8 4 5 6 5 5 8 9 8 8 6 5 4 6 3 4 7 6 4 5 6 5 5 5 5 7 12 18 23 26 23 18 15 14 14
1 0 2 2 2 1 1 1 1 2 4 8 5 4 6 5 2 2 2 1 4 5 3 2 3 4 5 8 6 5 8 4 2 3 4 3 2 2 2 3 7 8 3 6 15 11 3 3 8 9 12 11 7 6 5 7 9 10 9 10 10 10 9 8 8 9 6 6 6 11 8 8 9 8 8 8 6 5 8 16 24 27 26 22 17 13 12 12
1 1 1 2 1 1 0 2 3 2 3 6 4 4 7 7 5 5 2 1 1 4 2 0 3 5 7 10 7 5 6 4 3 3 2 2 2 2 2 2 2 6 3 5 10 7 3 6 7 7 12 9 3 5 6 7 8 8 11 13 12 13 13 13 15 13 9 8 14 11 11 13 12 8 9 11 11 13 16 21 25 26 25 22 17 13 12 12
2 2 1 1 2 1 2 6 8 4 2 5 3 3 9 11 8 5 2 3 0 3 2 3 5 5 6 7 6 6 7 6 5 5 3 3 3 3 3 1 1 4 3 4 4 3 3 5 5 7 10 10 4 4 5 7 6 5 9 13 14 15 17 17 18 16 12 14 17 7 9 14 12 9 11 14 19 21 18 17 21 25 24 22 19 15 13 14
3 2 2 3 3 3 4 7 9 5 2 4 3 2 7 12 11 5 1 4 4 3 2 4 5 5 5 5 5 4 7 8 6 7 8 6 3 3 4 4 4 2 3 4 3 3 4 3 3 6 6 8 4 4 4 5 5 5 7 9 11 14 16 16 18 16 12 14 14 4 4 12 8 10 12 15 18 18 12 14 21 25 23 21 19 16 15 15
4 4 5 5 2 2 3 3 4 3 2 3 3 3 5 9 10 7 1 2 6 6 6 7 6 5 3 4 5 3 6 6 5 9 12 9 7 7 4 5 8 7 5 5 3 4 5 2 2 5 5 6 3 4 5 5 5 2 3 7 13 14 14 16 15 11 10 13 12 5 7 12 5 11 13 13 13 14 15 18 22 23 23 22 19 16 16 16
7 6 7 6 2 2 4 2 2 3 2 2 3 3 3 4 6 7 4 2 3 6 11 12 9 5 4 4 4 5 9 12 12 12 12 9 8 9 6 5 10 9 7 6 3 2 5 5 2 4 7 4 3 2 6 7 4 3 6 12 18 17 15 13 8 6 9 11 10 9 12 12 5 10 11 9 9 12 17 21 23 23 25 23 18 16 15 16
Wind_Direction
203 198 200 202 203 198 193 193 199 204 203 202 202 203 203 202 202 198 195 195 197 197 193 196 202 210 216 220 226 231 234 235 235 235 233 232 229 230 238 241 230 227 222 206 204 207 205 198 185 177 173 166 162 157 147 146 150 143 103 93 130 176 202 184 180 190 166 22 197 187 183 170 170 195 196 210 210 224 221 209 208 210 207 193 179 174 179 184
201 197 202 204 202 194 189 193 200 202 197 195 196 198 199 198 199 197 193 193 194 193 191 196 203 211 219 224 230 232 233 233 236 237 233 228 227 230 232 231 227 223 218 208 207 210 207 198 184 175 171 163 154 153 151 150 144 122 96 114 187 201 201 184 173 183 178 17 181 181 183 180 180 185 187 205 218 213 222 218 217 221 215 207 202 193 188 189
199 197 202 201 195 189 189 195 199 196 191 191 192 194 196 196 196 195 193 192 193 192 192 197 204 211 220 225 229 228 228 231 239 239 231 222 224 227 227 226 222 217 215 210 209 211 212 205 186 175 170 159 151 157 153 150 150 113 108 121 228 208 195 188 173 180 197 243 166 171 177 181 188 186 188 199 209 212 226 224 219 225 223 212 209 210 203 197
196 197 200 195 188 187 192 196 192 189 189 189 190 191 193 194 195 194 193 193 193 194 195 200 206 213 218 221 221 218 218 234 248 241 229 219 221 222 223 223 216 212 210 206 206 205 206 204 188 176 166 147 146 162 155 154 167 147 129 153 219 185 152 188 183 182 196 204 179 167 164 179 194 193 195 186 168 247 242 234 230 234 231 215 210 212 213 207
196 199 197 192 188 190 195 194 186 184 187 188 189 191 191 191 192 192 192 193 194 196 199 204 209 213 212 209 207 202 195 236 262 243 229 219 217 218 220 218 211 207 204 201 201 198 197 196 186 176 160 135 143 158 159 154 151 132 133 156 160 156 128 149 171 181 192 187 176 162 156 183 188 197 205 191 188 229 248 249 244 245 243 230 219 214 215 212
197 195 193 194 193 193 194 189 183 182 186 188 189 191 190 190 190 190 193 195 196 199 204 208 208 206 199 196 195 190 185 185 316 240 222 216 213 213 214 213 206 203 204 202 197 193 192 188 183 177 150 125 157 158 161 161 150 136 194 155 141 143 116 121 160 182 186 178 175 169 171 182 177 202 216 210 222 227 244 284 258 251 244 236 229 221 219 216
195 191 191 195 196 193 190 185 182 182 186 188 191 191 189 188 189 191 195 195 197 201 206 205 201 196 190 189 190 190 197 208 285 304 213 208 209 207 207 209 202 201 206 201 194 191 188 185 184 176 138 107 172 158 151 159 154 134 148 159 148 138 102 110 154 145 149 171 177 174 176 179 182 202 221 226 235 236 240 253 257 274 248 233 229 225 226 225
190 190 193 194 196 191 184 182 180 181 187 190 192 190 188 189 191 194 196 196 197 198 198 195 191 191 188 189 190 191 207 215 236 306 209 198 202 201 200 202 198 199 203 201 198 192 187 187 184 174 140 130 169 153 146 141 86 111 144 156 146 137 128 105 115 132 128 148 160 166 170 184 200 210 241 243 246 243 243 248 249 254 262 243 230 227 228 227
187 192 195 196 199 190 179 180 180 181 188 190 189 188 188 191 193 194 195 193 192 189 188 188 190 191 189 190 190 193 216 215 221 289 207 193 194 194 194 195 195 197 198 200 199 194 192 187 184 182 171 167 154 149 157 147 256 189 146 143 136 125 131 123 108 121 127 139 155 165 156 172 197 227 262 257 256 251 244 245 247 247 251 253 240 230 229 229
189 193 193 195 200 191 180 179 179 181 187 188 186 187 190 192 192 191 189 186 185 183 184 189 192 192 190 190 185 194 219 215 222 251 223 193 188 188 192 192 195 197 198 198 197 196 194 190 188 181 165 162 145 148 165 155 198 165 130 116 115 109 114 129 124 117 125 130 153 176 174 190 159 188 259 250 247 253 244 238 240 244 244 248 249 236 230 232
191 193 193 195 198 192 182 177 178 180 183 184 184 186 189 188 186 184 182 182 183 182 185 192 192 191 192 190 184 193 212 213 223 235 229 196 187 184 190 194 196 198 200 200 197 194 194 196 186 171 162 169 146 133 157 135 136 143 129 100 66 87 97 89 118 123 122 120 139 154 158 193 129 186 243 227 219 266 267 235 232 237 239 241 245 239 231 231
193 193 192 193 193 191 184 178 179 179 178 179 181 183 183 181 180 179 180 182 183 184 187 191 190 190 190 191 195 200 206 213 218 225 223 197 186 183 187 191 193 194 197 200 198 193 191 192 187 184 163 158 147 116 146 133 127 132 125 104 10 32 60 36 74 120 123 126 129 110 112 271 211 228 241 230 231 250 258 243 234 233 236 235 238 238 232 230
192 190 188 185 184 186 185 182 180 177 175 177 179 179 178 177 176 177 180 183 184 185 187 187 186 188 185 189 204 205 208 217 210 215 211 194 187 184 183 182 185 187 189 193 194 191 189 188 194 194 153 148 145 126 138 123 122 126 99 105 51 29 5 356 26 105 135 141 150 120 263 270 258 248 243 234 231 239 243 242 241 237 235 232 234 237 235 230
185 185 182 178 179 183 184 184 180 176 176 177 177 176 175 175 176 178 180 182 185 185 185 183 181 183 184 191 209 210 213 216 205 209 201 190 187 181 176 173 174 177 180 179 178 184 184 182 188 179 150 144 133 122 116 71 94 116 78 74 81 127 257 321 14 125 140 171 172 130 221 260 268 271 243 230 236 241 246 242 240 242 239 235 234 237 238 236
180 180 180 176 178 180 179 181 180 176 175 176 176 175 174 174 176 176 178 181 183 184 181 178 177 177 184 201 211 212 215 217 209 206 195 187 185 178 172 168 164 165 169 167 165 168 170 174 175 152 129 135 131 118 73 25 32 38 114 341 4 153 246 315 14 87 140 176 142 123 213 269 270 275 246 224 240 242 248 251 248 247 245 239 238 240 242 242
177 178 178 176 176 177 176 179 180 176 174 175 175 173 172 173 173 173 176 178 179 181 177 174 177 174 174 201 205 209 213 214 210 202 193 186 183 179 172 164 159 159 159 161 164 162 159 162 154 127 122 134 130 110 69 47 2 353 102 170 212 153 235 310 10 4 87 147 82 113 214 266 275 265 186 166 228 257 256 259 251 247 247 245 246 248 248 245
174 176 176 175 175 176 177 179 179 175 173 173 171 169 169 168 168 170 172 173 175 175 173 173 175 175 189 203 198 204 206 207 206 199 190 183 182 181 178 167 160 161 159 158 162 159 155 152 141 128 116 116 116 108 99 48 257 281 40 115 188 169 173 273 274 328 41 134 210 55 225 247 261 269 252 234 272 289 281 274 263 253 251 251 253 253 250 247
170 173 174 174 176 177 178 179 177 174 172 168 165 163 163 163 164 167 168 167 162 157 162 172 169 171 225 210 196 197 199 200 199 195 186 182 180 181 183 175 166 164 152 147 156 156 149 134 128 130 53 70 150 128 140 205 184 175 159 128 168 180 189 244 233 267 28 106 192 126 258 260 272 281 274 270 279 282 279 277 274 268 262 259 257 254 251 248
166 170 173 174 177 179 178 177 175 173 167 161 159 156 153 151 150 158 166 161 154 147 165 178 170 154 236 197 191 188 189 191 191 189 183 179 175 177 182 177 171 164 147 136 157 158 139 107 106 137 145 168 191 168 171 194 164 158 161 137 150 168 229 245 243 273 50 121 213 221 239 268 277 284 280 277 280 277 275 276 273 270 267 263 259 254 251 248
164 166 172 176 179 180 178 176 175 172 166 162 159 153 147 144 132 146 165 162 158 143 221 178 176 158 41 174 180 178 174 178 184 182 178 178 173 171 171 165 163 159 149 145 163 160 132 135 171 184 188 185 181 153 141 147 131 133 125 106 138 161 233 252 264 305 45 144 242 239 254 277 272 272 276 277 282 279 271 270 268 267 265 263 261 257 253 250
164 165 170 176 181 180 178 177 174 169 167 166 164 158 158 158 146 160 166 165 178 155 42 177 178 168 49 164 171 168 163 164 177 178 176 178 172 169 167 159 152 141 196 141 122 118 123 162 207 209 191 169 151 132 115 99 90 100 123 126 133 182 217 256 267 317 10 164 265 4 318 274 265 268 271 273 277 268 263 261 263 265 264 263 262 260 257 255
166 168 171 176 180 180 179 178 173 168 167 169 168 165 169 169 166 173 166 157 190 181 41 179 182 179 70 163 167 163 159 149 166 176 175 175 173 176 170 154 140 142 196 121 111 111 153 205 224 196 151 116 94 100 102 91 89 88 108 126 145 211 218 292 296 327 15 111 268 358 334 274 266 264 265 264 257 259 263 260 262 265 264 264 262 262 263 262
171 172 173 177 178 179 180 178 173 170 170 173 172 167 169 171 169 171 165 130 168 190 289 177 184 189 149 160 169 165 160 149 160 174 175 175 175 177 166 147 127 139 163 178 153 151 183 248 225 165 141 115 87 79 99 89 84 93 108 127 169 221 173 218 248 315 11 60 275 268 287 281 280 283 274 263 253 261 268 265 264 263 262 264 263 265 268 268
175 175 176 178 175 177 180 178 175 174 175 176 174 170 169 171 166 163 158 94 119 188 249 177 183 188 178 162 175 177 168 159 166 173 175 176 172 168 164 149 125 140 179 183 158 155 197 279 173 146 136 124 114 108 121 114 85 75 144 143 163 188 175 194 187 100 1 22 42 49 313 293 305 315 287 281 275 270 274 276 273 267 263 267 267 267 270 270
177 177 179 178 176 177 177 178 178 177 179 178 175 172 169 169 164 160 150 66 89 178 192 185 180 186 187 177 179 179 167 159 166 172 176 178 170 157 152 149 142 172 186 151 132 158 231 289 146 138 118 123 126 149 174 146 125 240 213 175 168 169 157 136 115 88 46 3 2 23 328 285 317 311 268 303 336 299 298 302 295 296 285 277 274 273 271 268
180 180 180 180 177 174 174 178 179 178 180 179 176 169 167 167 161 161 147 50 313 210 166 178 175 181 187 181 170 164 156 173 171 173 175 178 176 162 144 140 110 168 170 137 127 170 213 82 122 134 133 131 132 173 201 154 128 193 232 167 141 132 129 132 129 103 105 213 334 45 153 256 317 308 268 310 326 301 308 315 323 341 329 305 290 280 273 268
183 184 183 182 179 176 175 177 179 178 179 178 173 165 164 163 157 160 136 35 281 189 145 171 174 176 181 171 165 159 155 173 161 172 175 175 181 171 162 167 87 140 164 131 152 212 117 109 73 104 120 124 142 189 210 152 132 204 231 133 125 124 134 145 124 106 176 220 327 18 109 221 298 278 275 330 324 302 314 316 330 356 359 349 325 294 280 268
185 187 186 183 182 182 180 180 181 179 175 173 169 164 162 158 154 152 116 59 218 150 138 170 165 169 170 165 169 161 136 153 146 176 179 174 178 168 168 187 145 142 158 136 184 249 103 159 172 141 128 152 178 227 199 145 121 244 212 123 126 127 127 124 101 96 31 19 295 324 44 205 266 274 301 356 322 290 304 301 315 354 20 35 38 36 28 198
186 190 191 186 180 179 183 187 184 176 168 165 164 163 160 155 149 128 84 148 168 112 137 157 153 165 160 156 168 149 128 149 137 168 173 170 178 169 142 169 140 114 68 92 166 209 80 184 189 153 150 185 188 332 218 142 117 171 149 99 87 81 83 85 90 101 51 38 236 273 13 209 264 283 305 10 294 261 272 281 291 343 34 50 56 68 87 109
186 189 193 192 182 179 186 188 179 169 160 160 163 161 157 153 144 123 149 204 153 88 129 151 161 165 152 143 148 115 121 138 124 140 155 158 165 147 113 132 127 109 50 35 92 222 317 146 154 122 145 159 132 56 32 76 127 140 124 82 71 43 42 55 53 86 71 306 250 261 317 60 269 281 259 212 231 222 210 244 278 346 46 56 60 69 85 101
180 184 195 199 190 187 186 181 173 164 158 158 159 157 153 142 110 145 190 185 122 97 110 145 173 158 157 158 157 149 97 67 136 141 147 146 138 126 114 122 106 86 49 38 57 326 2 83 84 103 129 127 108 63 40 66 113 118 97 97 89 12 14 29 2 46 108 250 259 274 303 155 215 262 256 249 264 233 188 181 212 317 21 48 64 69 81 98
177 183 198 202 196 193 186 178 170 161 157 156 156 156 148 107 176 188 185 143 140 191 175 178 203 172 169 164 150 152 115 91 168 154 150 150 149 155 148 170 155 102 166 186 151 345 37 94 304 87 154 159 121 79 42 12 37 78 106 117 103 25 21 1 308 330 207 238 266 288 286 204 229 250 257 263 266 242 219 217 229 290 354 24 56 71 83 102
182 188 201 206 201 193 183 175 167 161 158 156 156 153 124 120 198 194 171 172 192 198 145 140 154 151 158 155 152 156 113 129 185 164 149 138 156 199 244 183 152 123 181 178 134 120 228 302 299 110 213 218 162 123 133 256 176 132 141 137 134 123 116 228 257 284 252 250 285 283 267 256 264 265 244 243 251 247 245 251 257 274 332 358 21 72 92 111
184 191 200 209 203 186 178 171 166 163 160 157 156 145 115 177 198 157 160 200 276 41 74 106 107 122 148 152 179 170 114 114 173 138 125 134 150 199 233 221 171 102 110 145 149 165 178 258 224 164 204 197 179 159 153 142 131 172 166 130 146 154 154 198 211 197 226 260 298 290 259 192 208 256 230 235 261 265 257 259 261 260 285 333 327 138 111 121
183 191 198 203 192 179 175 170 165 164 163 158 153 150 173 194 206 157 170 184 112 50 31 79 114 131 159 25 327 193 131 144 169 121 139 169 173 191 191 202 200 140 125 157 196 171 170 244 261 309 311 152 165 210 132 108 109 233 111 104 161 180 138 135 173 174 168 132 303 264 239 214 217 270 264 255 273 267 254 258 260 254 263 300 273 207 142 131
179 186 192 192 182 175 172 170 167 166 167 159 149 188 195 200 192 176 169 140 143 136 97 73 85 122 164 30 308 230 336 102 159 148 177 196 207 198 192 200 195 182 166 159 167 154 159 262 321 358 10 62 130 206 107 102 158 162 117 163 209 160 113 114 172 64 80 169 260 224 246 290 313 289 298 329 275 270 269 272 254 237 239 258 217 178 149 137
176 178 184 184 176 170 171 172 169 170 172 166 176 195 194 152 166 160 137 126 138 139 128 142 169 145 169 175 194 202 183 114 154 165 180 191 222 198 198 223 195 193 201 159 170 203 156 136 339 28 72 6 34 98 64 39 86 124 173 195 178 114 95 111 147 21 46 230 276 270 229 283 307 265 321 14 218 254 274 276 231 210 204 160 151 154 146 137
171 171 177 179 172 166 169 173 174 174 174 173 205 204 175 128 179 151 137 136 134 134 140 165 170 156 172 181 191 185 173 163 170 178 171 186 238 196 181 200 195 194 202 163 141 211 133 115 327 11 129 304 357 95 85 25 37 105 173 159 117 138 165 110 136 148 137 226 278 303 271 262 208 222 301 239 209 227 239 231 199 181 164 145 145 145 140 135
162 165 171 174 169 165 171 175 175 174 171 191 207 212 180 134 178 161 152 144 131 133 160 178 165 114 173 175 168 170 180 177 168 179 181 185 236 203 180 187 193 192 191 164 150 190 122 129 225 319 261 270 9 120 181 179 25 41 108 116 77 130 162 162 149 161 179 192 242 307 324 259 227 215 215 219 218 207 175 175 200 177 154 147 145 141 137 135
162 161 165 175 174 171 173 173 171 172 184 217 200 196 154 141 125 163 161 151 131 131 168 185 162 144 166 165 148 163 182 175 167 185 207 187 205 226 195 187 165 171 172 131 117 157 104 129 172 317 331 194 177 221 195 177 155 113 131 158 173 83 118 165 102 115 141 158 184 250 293 267 249 208 202 221 229 202 170 175 194 171 152 149 145 139 137 136
168 155 152 177 177 167 164 166 169 178 198 237 171 119 153 154 122 151 169 161 108 87 136 149 146 154 156 151 163 166 156 153 173 189 213 198 202 227 208 191 165 150 144 96 124 165 141 144 151 140 190 190 221 265 222 187 176 165 176 182 175 148 122 147 242 241 122 138 168 170 253 269 254 204 207 222 229 220 199 185 179 163 153 149 142 137 136 135
167 123 142 169 169 162 160 162 170 175 173 171 150 121 124 130 123 146 171 170 107 73 106 116 121 151 158 158 161 157 155 161 181 188 205 213 210 215 212 193 168 157 154 145 164 155 112 109 117 145 207 211 261 296 234 226 196 136 198 191 162 155 134 151 204 218 125 104 135 122 254 271 261 211 209 231 237 240 239 203 175 160 155 149 139 136 137 136
121 95 135 161 166 163 162 170 181 169 202 188 142 89 102 118 116 138 168 186 149 90 106 123 142 163 173 163 143 159 171 171 185 197 207 218 213 212 191 174 163 159 155 143 154 144 114 108 111 62 310 314 319 337 13 338 70 141 232 190 161 182 146 148 182 163 137 166 150 95 276 268 274 252 232 254 258 260 262 211 173 160 157 151 140 139 141 141
89 95 116 146 167 169 168 191 194 185 188 145 113 81 96 109 119 144 173 193 177 141 141 152 177 172 171 150 139 168 183 178 197 207 204 199 202 194 172 170 166 166 175 180 178 174 177 160 128 117 34 3 347 343 337 315 242 204 226 187 171 146 100 101 120 105 137 201 161 143 230 253 277 308 306 294 282 269 242 190 170 165 162 155 143 142 146 146
94 86 92 117 163 177 183 254 183 177 155 133 135 137 119 79 114 160 163 165 164 153 149 167 163 125 126 142 121 156 186 176 177 198 199 213 215 28 169 180 178 179 194 197 172 164 175 186 151 154 169 180 198 209 218 228 197 201 210 182 182 160 141 151 131 122 212 222 159 169 229 252 275 304 322 320 286 227 197 181 176 172 167 161 149 145 149 149
101 78 95 105 151 184 201 38 104 146 156 154 151 162 152 134 154 151 137 148 179 142 107 110 150 108 99 153 136 163 198 188 67 161 187 192 208 342 154 188 193 193 196 180 163 154 141 224 183 187 198 198 200 200 173 125 143 188 193 175 179 175 163 145 110 162 203 160 163 223 226 207 232 246 265 261 216 194 185 180 181 181 177 170 159 153 154 153
70 78 137 105 105 149 5 11 81 92 153 169 171 174 163 147 124 135 134 174 191 166 93 39 164 159 163 166 155 177 196 185 92 152 172 170 189 334 29 161 194 197 178 164 167 150 87 218 202 204 216 216 195 182 161 135 165 188 175 166 176 175 164 157 184 205 161 115 232 239 202 202 226 217 222 234 217 208 207 193 187 186 184 177 167 162 160 159
84 88 120 109 124 164 348 190 170 100 128 170 169 155 160 160 163 171 169 36 185 186 155 70 222 204 177 166 159 163 167 162 182 185 142 145 156 91 48 45 181 194 169 156 171 148 117 206 209 199 220 232 172 158 176 159 170 180 169 173 176 170 172 184 207 211 149 166 238 226 175 210 226 199 210 220 202 202 207 200 192 188 186 185 178 172 168 170
110 87 93 100 80 65 91 137 151 140 137 168 167 161 171 177 180 178 134 89 48 250 187 184 219 200 176 173 157 159 172 171 194 209 172 151 158 128 116 92 198 200 162 139 175 169 148 203 200 177 216 240 202 170 188 163 157 168 176 179 172 173 186 194 211 215 186 207 237 198 164 224 225 185 206 215 205 206 204 196 193 190 191 193 188 181 179 181
151 143 139 115 72 66 95 125 146 154 158 173 191 196 180 184 185 180 141 146 168 228 214 195 192 159 159 174 146 165 197 176 179 199 174 153 171 180 177 182 172 168 165 157 174 183 181 215 172 148 207 247 210 178 186 159 155 171 180 183 176 180 193 202 215 218 203 223 241 182 190 255 230 174 205 219 211 210 205 197 198 196 194 195 193 190 186 184
154 156 152 138 91 120 137 123 135 150 167 179 189 180 183 195 182 154 115 183 169 178 181 174 164 136 118 132 132 192 215 175 167 187 176 167 178 181 191 190 165 150 168 180 163 161 181 205 88 124 191 242 232 181 169 102 74 109 176 186 187 189 199 207 214 210 194 215 230 204 240 261 214 164 201 216 202 203 208 209 208 205 202 201 203 202 194 187
147 136 147 150 147 181 170 138 127 168 189 167 171 167 161 186 171 150 159 209 173 177 179 171 156 131 129 156 171 172 148 123 108 125 135 124 121 120 102 133 157 158 165 168 153 155 165 158 133 157 187 241 317 153 139 94 72 253 230 201 195 198 205 208 219 223 201 200 204 208 230 240 184 163 195 203 189 204 216 216 214 212 208 210 216 215 203 193